Probability
0 0 0 0 0 0 0 0 0 0 0 0 0 0 0 0 0 0 0 0 0 0 0 0 0 0 0 0 0 0 0 0 0 0 0 0 0 0 0 0 0 0 0
0 0 0 0 0 0 0 0 0 0 0 0 0 0 0 0 0 0 0 0 0 0 0 0 0 0 0 0 0 0 0 0 0 0 0 0 0 0 0 0 0 0 0
0 0 0 1 1 1 0 0 0 0 0 0 0 0 0 0 0 0 0 0 0 0 0 0 0 0 0 0 0 0 0 0 0 0 0 0 0 0 0 0 0 0 0
0 0 1 2 2 1 0 0 0 0 0 0 0 0 0 0 0 0 0 0 0 0 0 0 0 0 0 0 0 0 0 0 0 0 0 0 0 0 0 0 0 0 0
0 1 2 3 3 1 0 0 0 0 0 0 0 0 0 0 0 0 0 0 0 0 0 0 0 0 0 0 0 0 0 0 0 0 0 0 0 0 0 0 0 0 0
1 1 2 3 3 1 0 0 0 0 0 0 0 0 0 0 0 0 0 0 0 0 0 0 0 0 0 0 0 0 0 0 0 0 0 0 0 0 0 0 0 0 0
0 1 1 3 3 2 1 0 0 0 0 0 0 0 0 0 0 0 0 0 0 0 0 0 0 0 0 0 0 0 0 0 0 0 0 0 0 0 0 0 0 0 0
0 0 1 2 2 2 1 0 0 0 0 0 0 0 0 0 0 0 0 0 0 0 0 0 0 0 0 0 0 0 0 0 0 0 0 0 0 0 0 0 0 0 0
1 0 0 1 1 1 0 0 0 0 0 0 0 0 0 0 0 0 0 0 0 0 0 0 0 0 0 0 0 0 0 0 0 0 0 0 0 0 0 0 0 0 0
1 1 1 0 0 0 0 0 0 0 0 0 0 0 0 0 0 0 0 0 0 0 0 0 0 0 0 0 0 0 0 0 0 0 0 0 0 0 0 0 0 0 0
1 2 2 1 0 0 0 0 0 0 0 0 0 0 0 0 0 0 0 0 0 0 0 0 0 0 0 0 0 0 0 0 0 0 0 0 0 0 0 0 0 0 0
0 1 2 2 1 1 0 0 0 0 0 0 0 0 0 0 0 0 0 0 0 0 0 0 0 0 0 0 0 0 0 0 0 0 0 0 0 0 0 0 0 0 0
0 0 1 2 2 2 1 0 0 0 0 0 0 0 0 0 0 0 0 0 0 0 0 0 0 0 0 0 0 0 0 0 0 0 0 0 0 0 0 0 0 0 0
0 0 0 1 3 3 2 0 0 0 0 0 0 0 0 0 0 0 0 0 0 0 0 0 0 0 0 0 0 0 0 0 0 0 0 0 0 0 0 0 0 0 0
0 0 0 1 2 2 1 0 0 0 0 0 0 0 0 0 0 0 0 0 0 0 0 0 0 0 0 0 0 0 0 0 0 0 0 0 0 0 0 0 0 0 0
0 0 0 0 1 1 1 0 0 0 0 0 0 0 0 0 0 0 0 0 0 0 0 0 0 0 0 0 0 0 0 0 0 0 0 0 0 0 0 0 0 0 0
1 0 0 0 0 0 0 0 0 0 0 0 0 0 0 0 0 0 0 0 0 0 0 0 0 0 0 0 0 0 0 0 0 0 0 0 0 0 0 0 0 0 0
1 0 0 0 0 0 0 0 0 0 0 0 0 0 0 0 0 0 0 0 0 0 0 0 0 0 0 0 0 0 0 0 0 0 0 0 0 0 0 0 0 0 0
1 1 0 0 0 0 0 0 0 0 0 0 0 0 0 0 0 0 0 0 0 0 0 0 0 0 0 0 0 0 0 0 0 0 0 0 0 0 0 0 0 0 0
1 1 1 0 0 0 0 0 0 0 0 0 0 0 0 0 0 0 0 0 0 0 0 0 0 0 0 0 0 0 0 0 0 0 0 0 0 0 0 0 0 0 0
0 1 1 1 0 0 0 0 0 0 0 0 0 0 0 0 0 0 0 0 0 0 0 0 0 0 0 0 0 0 0 0 0 0 0 0 0 0 0 0 0 0 0
0 1 2 1 0 0 0 0 0 0 0 0 0 0 0 0 0 0 0 0 0 0 0 0 0 0 0 0 0 0 0 0 0 0 0 0 0 0 0 0 0 0 0
0 1 2 2 1 0 0 0 0 0 0 0 0 0 0 0 0 0 0 0 0 0 0 0 0 0 0 0 0 0 0 0 0 0 0 0 0 0 0 0 0 0 0
0 0 1 2 1 0 0 0 0 0 0 0 0 0 0 0 0 0 0 0 0 0 0 0 0 0 0 0 0 0 0 0 0 0 0 0 0 0 0 0 0 0 0
0 0 1 1 1 0 0 0 0 0 0 0 0 0 0 0 0 0 0 0 0 0 0 0 0 0 0 0 0 0 0 0 0 0 0 0 0 0 0 0 0 0 0
0 0 0 1 0 0 0 0 0 0 0 0 0 0 0 0 0 0 0 0 0 0 0 0 0 0 0 0 0 0 0 0 0 0 0 0 0 0 0 0 0 0 0
Wind_Speed
2 3 2 3 6 8 9 10 10 10 10 11 11 11 11 11 11 11 11 11 11 11 12 12 13 13 13 13 13 13 12 12 11 11 11 10 10 10 10 10 9 5 10
0 1 2 4 6 8 9 9 10 10 10 10 11 11 11 11 11 11 11 11 11 11 12 12 12 12 12 12 12 12 11 11 10 10 10 8 8 9 9 9 8 5 9
2 1 1 5 7 8 9 9 9 10 10 10 11 11 11 11 11 11 11 11 11 11 12 12 12 11 11 11 11 10 10 10 9 9 9 5 4 8 9 8 8 8 8
2 2 2 6 7 8 9 9 9 9 10 10 10 11 11 10 11 11 11 11 10 11 11 11 11 11 11 10 10 10 10 9 8 8 5 4 3 6 8 8 7 7 7
3 3 3 7 8 8 9 9 9 9 10 10 10 10 10 11 11 11 11 11 11 10 10 10 10 10 10 9 9 9 9 9 8 7 4 4 4 6 6 6 6 7 7
3 3 3 7 8 8 8 9 9 9 9 9 9 9 10 11 11 10 11 11 10 10 10 10 9 9 9 9 8 8 8 8 7 4 4 4 4 5 6 6 5 5 5
4 3 3 7 8 8 8 8 9 9 9 9 9 9 10 10 10 10 11 10 10 10 10 10 9 9 9 8 8 9 9 8 5 4 3 3 4 6 5 4 5 5 5
4 4 4 7 8 8 8 8 8 9 9 9 9 9 10 10 10 10 10 10 9 9 9 9 9 9 8 8 8 9 9 8 5 4 3 3 5 6 5 4 4 3 4
4 4 3 4 5 6 7 8 8 9 9 9 9 9 9 9 9 9 9 9 9 9 9 9 9 8 8 8 8 8 8 8 4 3 3 3 5 5 5 4 3 4 4
4 3 3 3 3 3 4 7 8 8 8 9 9 9 8 8 8 9 8 9 8 8 8 8 8 8 8 8 8 8 7 6 4 3 3 4 7 6 5 5 4 4 4
3 3 3 3 3 3 3 5 6 7 8 8 7 8 7 4 4 5 7 8 8 8 8 8 8 8 8 8 8 8 6 3 3 2 2 6 7 7 6 5 4 4 4
1 1 2 2 2 3 3 3 3 3 4 4 4 4 3 3 3 5 6 8 8 8 7 8 8 8 6 4 6 7 3 3 3 2 3 7 8 8 7 6 5 4 4
0 1 1 1 2 2 2 2 2 2 2 3 4 4 3 3 2 3 2 3 4 5 4 5 5 4 4 3 3 3 3 3 2 2 4 8 8 8 8 7 6 5 4
1 1 1 1 2 2 2 2 2 2 2 2 3 4 3 2 2 2 2 2 2 2 3 3 3 4 4 4 4 4 4 3 2 2 4 8 9 9 8 7 6 5 4
0 0 0 1 2 2 2 2 2 2 2 2 2 2 3 2 2 2 2 2 2 2 2 2 3 3 4 4 3 3 3 4 4 3 3 7 9 9 9 8 7 6 6
1 1 0 1 1 2 2 2 2 1 1 2 2 2 3 2 2 2 2 2 3 2 2 2 2 2 2 3 4 3 3 3 3 3 3 5 8 8 9 9 8 8 8
2 1 1 2 2 2 2 2 2 2 2 2 2 2 3 3 2 2 2 2 2 2 2 2 3 2 3 3 3 4 3 3 3 3 3 3 4 7 8 8 9 9 9
2 2 2 2 2 3 2 2 2 1 2 2 1 2 3 3 2 2 2 2 2 2 2 2 3 2 3 3 3 3 3 3 3 3 3 3 3 3 6 9 9 10 10
2 2 3 2 3 3 3 2 2 1 2 1 1 2 2 2 2 2 1 2 2 2 2 2 2 2 3 3 3 3 3 2 3 3 3 3 3 3 3 7 9 9 10
0 1 2 2 2 2 2 2 1 1 1 1 1 1 2 2 2 1 1 2 2 2 2 2 2 2 2 3 3 3 3 2 2 2 2 2 3 3 4 4 4 6 9
1 1 1 2 2 2 2 2 2 1 1 0 0 1 1 1 1 1 1 1 2 2 2 2 2 2 2 3 2 3 3 2 2 2 2 2 3 3 3 4 3 3 4
1 1 2 2 2 3 2 2 2 2 2 2 1 0 0 1 1 1 1 1 1 1 2 2 2 1 2 2 1 2 3 3 3 3 2 1 2 2 3 4 3 4 3
2 2 2 2 2 2 3 2 1 1 0 0 0 1 1 1 1 1 1 1 1 1 1 1 1 1 1 1 1 0 1 2 4 3 2 2 2 2 2 3 3 4 4
3 2 2 2 2 2 3 3 4 3 2 2 1 1 1 0 0 1 0 0 0 1 1 1 1 1 0 1 1 1 1 1 2 4 3 2 3 2 3 3 3 4 4
2 2 2 1 1 2 3 3 3 2 2 1 1 1 1 1 1 1 0 0 0 0 1 1 1 1 1 1 1 1 1 1 2 3 5 4 3 2 2 2 2 3 3
1 1 1 1 2 2 3 3 3 3 2 1 1 1 1 1 1 1 1 1 1 1 1 1 1 1 1 1 1 1 1 1 2 2 5 5 5 3 3 2 2 2 2
Wind_Direction
315 321 351 41 65 68 69 68 66 67 68 69 72 73 73 72 73 73 72 69 68 69 70 71 70 70 69 68 67 65 65 65 64 64 64 64 67 68 67 66 62 57 69
250 304 17 62 77 74 72 70 68 69 69 70 73 73 73 72 71 71 70 68 68 68 68 70 71 71 70 69 67 66 65 65 62 60 56 53 59 66 68 67 65 65 68
85 68 65 69 78 77 73 72 69 70 71 71 73 72 71 69 69 69 69 68 67 67 66 66 68 68 69 69 68 65 64 64 62 58 49 31 41 65 68 66 62 63 67
89 70 63 76 78 80 77 75 74 72 72 72 71 71 70 70 69 67 65 65 65 66 66 65 65 65 65 66 66 65 62 61 61 54 36 18 15 55 63 63 60 56 56
73 57 57 77 81 83 81 78 76 76 74 72 71 71 70 68 66 64 62 61 61 62 62 62 63 62 61 60 62 64 61 58 57 49 29 15 8 42 59 60 57 52 48
60 53 66 79 83 85 83 81 79 78 76 72 69 69 70 69 67 63 60 59 58 57 57 56 56 57 56 56 57 61 60 58 52 37 26 14 360 26 49 56 57 52 45
64 50 67 77 78 80 82 80 79 79 77 73 71 69 69 67 66 65 61 57 54 52 52 51 51 51 51 50 51 54 53 51 49 32 15 2 352 7 30 46 50 48 43
84 64 66 70 72 74 75 75 74 74 73 73 72 70 69 67 65 63 60 57 54 51 49 47 44 43 44 46 46 46 46 44 39 26 8 352 347 357 11 36 37 37 34
77 73 66 72 70 67 69 68 69 69 67 67 66 64 62 62 61 58 55 54 53 50 47 45 41 37 36 40 41 40 40 43 40 18 2 350 348 356 12 26 34 34 31
67 67 66 64 67 66 62 64 66 67 65 63 61 60 61 59 54 53 51 50 49 48 43 40 38 35 34 35 33 33 35 37 30 10 351 340 345 349 359 11 18 19 20
61 53 62 65 65 64 68 65 64 66 63 61 55 53 54 47 50 47 44 45 44 41 39 35 33 31 31 30 27 26 28 22 14 4 343 345 346 345 349 354 359 7 12
51 47 52 61 68 69 70 62 58 61 62 57 50 44 42 41 44 46 39 39 35 32 30 28 24 23 26 17 14 18 18 8 9 357 347 350 350 345 347 350 353 358 6
108 53 48 64 76 78 73 72 60 54 54 52 48 40 40 46 42 39 30 23 20 24 19 13 14 14 13 10 11 10 4 6 5 350 353 355 355 352 348 349 351 2 5
61 43 36 71 88 83 84 78 74 65 59 53 41 39 43 44 39 33 29 12 14 12 11 7 7 4 8 10 12 12 7 1 356 351 355 359 358 354 350 350 352 355 356
306 207 52 92 106 98 91 86 85 78 75 70 57 44 48 51 35 24 21 14 8 4 8 358 359 3 4 4 6 8 6 358 351 348 350 1 359 356 354 352 351 348 347
260 231 163 117 125 116 110 104 94 87 80 70 56 40 46 52 45 31 20 9 4 356 349 348 352 358 356 355 355 355 354 346 349 343 341 350 357 357 354 353 350 345 344
247 230 190 167 128 125 121 110 97 80 75 66 49 43 44 45 45 39 26 7 352 346 351 360 3 3 360 357 347 342 347 345 345 344 341 342 345 356 355 353 349 344 342
239 221 200 169 142 134 126 115 104 99 90 72 48 42 39 41 46 49 33 6 353 1 9 9 6 358 350 342 336 331 336 334 335 341 350 353 352 350 352 356 351 346 342
227 210 188 168 161 155 143 130 114 107 94 80 59 42 25 33 42 50 31 5 4 16 19 14 13 3 340 335 325 322 325 324 326 348 359 356 358 357 351 352 352 346 341
249 195 179 173 170 162 147 129 122 104 97 81 71 48 30 26 33 43 29 10 15 20 17 8 1 2 341 333 330 325 311 310 318 331 334 342 351 354 348 345 344 343 343
49 109 173 161 166 152 153 172 180 197 201 188 80 44 40 32 31 46 26 14 18 25 15 7 358 357 357 351 345 331 320 309 328 323 332 337 347 347 347 343 340 338 335
192 175 161 176 177 168 163 177 180 183 197 201 215 327 340 8 10 36 38 11 356 356 11 11 15 1 357 11 6 332 329 333 346 327 325 338 336 342 340 338 335 337 334
218 215 200 186 172 174 168 140 132 130 69 115 275 300 330 352 7 14 20 13 349 348 342 338 347 18 326 329 12 60 308 293 314 307 318 328 325 323 321 325 332 332 330
226 218 205 188 165 155 149 152 160 172 190 213 210 228 287 281 300 308 354 338 333 342 329 307 326 295 270 293 314 308 262 253 284 306 307 313 312 305 306 320 325 322 324
227 210 207 170 162 159 147 159 174 185 196 194 186 214 245 273 287 290 261 235 270 286 305 312 310 288 251 243 248 275 277 283 257 265 290 309 311 293 293 297 307 312 324
262 229 200 166 198 171 166 167 174 189 197 192 217 226 252 278 285 291 264 234 244 249 269 276 268 270 254 257 259 252 249 257 262 256 271 292 297 295 293 286 282 294 313